Location: Newark
(15.4608°S, 41.1635°W)
Time: 19:15:49
(UTC+00:00)

Tiros 1 despin weight - Visible Passes

Search period start: 28 February 2021 00:00
Search period end: 10 March 2021 00:00
Orbit: 593 x 642 km, 48.2° (Epoch: 28 February)

Date Brightness Start Highest point End Pass type
(mag) Time Alt. Az. Time Alt. Az. Time Alt. Az.
28 Feb ? 21:42:39 10° SSE 21:44:14 12° SE 21:45:48 10° ESE visible
28 Feb ? 23:21:32 10° SW 23:23:34 26° SW 23:23:34 26° SW visible
01 Mar ? 21:57:04 10° SSW 22:00:49 26° SE 22:02:39 20° E visible
01 Mar ? 23:38:34 10° WSW 23:39:44 16° W 23:39:44 16° W visible
02 Mar ? 22:12:48 10° SW 22:17:12 68° SE 22:18:57 35° ENE visible
03 Mar ? 22:29:17 10° WSW 22:33:30 43° NW 22:35:23 27° N visible
04 Mar ? 22:46:52 10° W 22:49:43 17° NW 22:51:58 12° NNW visible
05 Mar ? 21:20:21 10° SW 21:24:47 80° NW 21:29:12 10° NE visible
06 Mar ? 21:37:12 10° WSW 21:41:02 29° NW 21:44:52 10° N visible
07 Mar ? 21:56:02 10° WNW 21:57:14 11° NW 21:58:26 10° NW visible
